Regional Weather Roundup
Issued by NWS

Home | Current Version | Previous Version | Graphics & Text | Print | Product List | Glossary On
Versions: 1 2 3 4 5 6 7 8 9 10 11 12 13 14 15 16 17 18 19 20 21 22 23 24 25 26 27 28 29 30 31 32 33 34 35 36 37 38 39 40 41 42 43 44 45 46 47 48 49 50
000
ASUS45 KBOI 291010
RWRID
WEATHER ROUNDUP FOR IDAHO
NATIONAL WEATHER SERVICE BOISE ID
400 AM MDT FRI AUG 29 2014

NOTE: "FAIR" INDICATES FEW OR NO CLOUDS BELOW 12000 FEET
WITH NO SIGNIFICANT WEATHER AND/OR OBSTRUCTIONS TO VISIBILITY

IDZ012-014-291100-
SOUTHWEST IDAHO


CITY           SKY/WX    TMP DP  RH WIND       PRES   REMARKS
BOISE          FAIR      65  45  48 CALM      29.97R
CALDWELL       FAIR      64  43  45 W6        29.97S
MOUNTAIN HOME  FAIR      62  37  39 NW6       29.97R
$$

IDZ016-017-291100-
SOUTHCENTRAL IDAHO


CITY           SKY/WX    TMP DP  RH WIND       PRES   REMARKS
BURLEY         FAIR      60  45  57 CALM      30.03S
JEROME         FAIR      63  45  51 E3        30.03S
TWIN FALLS     FAIR      64  45  49 S13       30.03R
$$

IDZ019>023-291100-
SOUTHEAST IDAHO


CITY           SKY/WX    TMP DP  RH WIND       PRES   REMARKS
IDAHO FALLS    CLEAR     52  46  80 W3        30.08R
POCATELLO      PTCLDY    62  45  53 N8        30.07R
REXBURG        MOCLDY    56  46  69 NE7       30.09R
$$

IDZ006-010-011-018-031-032-291100-
CENTRAL IDAHO MOUNTAINS


CITY           SKY/WX    TMP DP  RH WIND       PRES   REMARKS
MCCALL         MOCLDY    51  43  74 CALM      30.09S
HAILEY         FAIR      55  39  54 NW10      30.14S
STANLEY          N/A     40  33  76 CALM      30.22S
SALMON         FAIR      52  45  76 N3        30.06S
CHALLIS        FAIR      55  41  59 CALM      30.11S
$$

IDZ002-004-006-007-026-291100-
NORTHERN IDAHO


CITY           SKY/WX    TMP DP  RH WIND       PRES   REMARKS
LEWISTON       FAIR      64  41  42 CALM      29.95S
LOWELL           N/A     56  51  84 NW5       30.03R
COEUR D`ALENE  FAIR      55  43  62 NE3       29.95F
MULLAN PASS    FAIR      54  38  54 SW7       30.14S
$$



USA.gov is the U.S. government's official web portal to all federal, state and local government web resources and services.